Weather History for KTWF - May, 2013

Change the Weather History Date:

Saturday, May 4, 2013

  Actual Average Record
Temperature  
Mean Temperature 58 °F -  
Max Temperature 72 °F 66 °F 87 °F (2004)
Min Temperature 43 °F 40 °F 31 °F (1991)
Degree Days  
Heating Degree Days 7 12  
Month to date heating degree days 61 51  
Since 1 July heating degree days 5513 5849  
Cooling Degree Days 0 0  
Month to date cooling degree days 0 0  
Year to date cooling degree days 0 1  
Growing Degree Days 8 (Base 50)    
Moisture  
Dew Point 32 °F    
Average Humidity 41    
Maximum Humidity 61    
Minimum Humidity 20    
Precipitation  
Precipitation T in 0.05 in 0.13 in (2003)
Month to date precipitation T 0.22  
Year to date precipitation 2.50 4.19  
Sea Level Pressure  
Sea Level Pressure 29.88 in    
Wind  
Wind Speed 13 mph (ENE)    
Max Wind Speed 32 mph    
Max Gust Speed 39 mph    
Visibility 10 miles    
Events      
T = Trace of Precipitation, MM = Missing Value Source: NWS Daily Summary

Daily Weather History Graph

Daily Weather History Graph

Search for Another Location

Airport or City:

Trip Planner

Search our weather history database for the weather conditions in past years. The results will help you decide how hot, cold, wet, or windy it might be!

Date:

Astronomy

May. 04, 2013 Rise Set
Actual Time 6:28 AM MDT 8:41 PM MDT
Civil Twilight 5:57 AM MDT 9:12 PM MDT
Nautical Twilight 5:19 AM MDT 9:51 PM MDT
Astronomical Twilight 4:37 AM MDT 10:33 PM MDT
Moon 3:35 AM MDT (5/4) 3:37 PM MDT (5/4)
Length of Visible Light 15h 15m
Length of Day
14h 13m
Waning Crescent, 26% of the Moon is Illuminated
May 4
Waning Crescent
May 9
New
May 17
First Quarter
May 24
Full
May 31
Last Quarter

Hourly Weather History & Observations

Time (MDT) Temp. Windchill Dew Point Humidity Pressure Visibility Wind Dir Wind Speed Gust Speed Precip Events Conditions
12:53 AM 51.1 °F - 28.0 °F 41% 29.91 in 10.0 mi NW 4.6 mph - N/A   Mostly Cloudy
1:53 AM 48.0 °F - 27.0 °F 44% 29.91 in 10.0 mi SE 16.1 mph - N/A   Partly Cloudy
2:53 AM 46.0 °F 43.1 °F 28.0 °F 50% 29.91 in 10.0 mi SSE 5.8 mph - N/A   Mostly Cloudy
3:53 AM 48.0 °F - 27.0 °F 44% 29.91 in 10.0 mi South 8.1 mph - N/A   Overcast
4:53 AM 48.0 °F - 28.0 °F 46% 29.91 in 10.0 mi South 5.8 mph - N/A   Overcast
5:53 AM 48.0 °F - 28.9 °F 48% 29.91 in 10.0 mi SSW 9.2 mph - 0.00 in   Overcast
6:53 AM 45.0 °F 40.1 °F 30.0 °F 56% 29.93 in 10.0 mi South 9.2 mph - N/A   Mostly Cloudy
7:53 AM 48.9 °F - 32.0 °F 52% 29.94 in 10.0 mi Calm Calm - N/A   Overcast
8:53 AM 54.0 °F - 36.0 °F 51% 29.92 in 10.0 mi ENE 11.5 mph - N/A   Clear
9:53 AM 57.0 °F - 35.1 °F 44% 29.91 in 10.0 mi NNE 13.8 mph - N/A   Clear
10:53 AM 62.1 °F - 34.0 °F 35% 29.90 in 10.0 mi NE 11.5 mph 20.7 mph N/A   Partly Cloudy
11:53 AM 63.0 °F - 33.1 °F 33% 29.90 in 10.0 mi NE 16.1 mph 27.6 mph N/A   Partly Cloudy
12:53 PM 66.0 °F - 30.9 °F 27% 29.87 in 10.0 mi NE 10.4 mph 19.6 mph N/A   Clear
1:53 PM 64.9 °F - 30.9 °F 28% 29.85 in 10.0 mi NE 15.0 mph 25.3 mph N/A   Partly Cloudy
2:53 PM 68.0 °F - 28.9 °F 23% 29.83 in 10.0 mi NNE 16.1 mph 27.6 mph N/A   Clear
3:53 PM 71.1 °F - 28.9 °F 21% 29.80 in 10.0 mi NNE 20.7 mph 26.5 mph N/A   Scattered Clouds
4:53 PM 66.9 °F - 26.1 °F 21% 29.80 in 10.0 mi NE 18.4 mph 25.3 mph N/A   Mostly Cloudy
5:53 PM 64.9 °F - 35.1 °F 33% 29.82 in 10.0 mi NE 21.9 mph 28.8 mph N/A   Clear
6:53 PM 62.1 °F - 35.1 °F 37% 29.85 in 10.0 mi NE 20.7 mph 28.8 mph N/A   Mostly Cloudy
7:53 PM 59.0 °F - 33.1 °F 38% 29.85 in 10.0 mi NE 16.1 mph 26.5 mph N/A   Clear
8:53 PM 54.0 °F - 35.1 °F 49% 29.87 in 10.0 mi NE 12.7 mph - N/A   Clear
9:53 PM 50.0 °F - 35.1 °F 57% 29.88 in 10.0 mi East 9.2 mph - N/A   Clear
10:53 PM 50.0 °F - 37.0 °F 61% 29.87 in 10.0 mi East 11.5 mph - N/A   Clear
11:53 PM 50.0 °F - 36.0 °F 59% 29.85 in 10.0 mi ENE 13.8 mph - N/A   Clear